www.pogodaiklimat.ru

Погода и климат >> Архив погоды >> Азербайджан >> Закатала


ПОГОДА в Закатале

  • Прогноз погоды в Закатале
  • Монитор погоды в Закатале

АРХИВ ПОГОДЫ в Закатале

Время (UTC), дата Ветер
(напр.,м/с)
 
Видим.   Явления Облачность Т
(С)
Тd
(С)
f
(%)
Тe
(С)
Тes
(С)
Комфортность P
(гПа)
Po
(гПа)
Тmin
(С)
Tmax
(С)
R
(мм)
R24
(мм)
S
(см)
06 15.09 В 2 50 км 1/0
[Ac und]
+20.1 +11.0 56 +22 +29 комфорт 1021.5 965.4 +13.9
09 15.09 З 2 50 км 3/3 1500 м
[Cu med, cong Ac und]
+23.3 +10.7 45 +25 +34 комфорт 1020.6 965.1
12 15.09 ЮЗ 2 50 км 4/4 1500 м
[Cu med, cong Ac und]
+25.3 +12.5 45 +27 +31 жарко 1018.4 963.4
15 15.09 С 2 20 км 8/8 1000 м
[Sc Ac und]
+22.1 +11.3 50 +24 +24 комфорт 1019.0 963.4
18 15.09 СВ 2 4000 м 6/6 600 м
[Sc]
+20.0 +12.0 60 +22 +22 комфорт 1021.5 965.4 +26.0
21 15.09 С 2 4000 м 8/0
[Ac und]
+19.6 +11.0 58 +21 +21 комфорт 1020.8 964.6
00 16.09 СВ 2 4000 м 9/9 600 м
[Sc Ac lent]
+18.9 +12.1 65 +20 +20 1020.7 964.4
03 16.09 ЮЗ 2 20 км 8/8 1000 м
[Sc Ac lent]
+17.1 +11.8 71 +17 +17 1022.2 965.5
06 16.09 В 2 20 км 8/8 1000 м
[Sc Ac lent]
+21.1 +12.8 59 +23 +25 комфорт 1022.8 966.7 +16.9
09 16.09 З 2 20 км 5/5 1000 м
[Sc Ac lent]
+24.2 +14.7 55 +27 +33 жарко 1020.2 964.8
12 16.09 ЮЗ 2 50 км 3/3 1500 м
[Cu med, cong]
+25.7 +14.1 49 +28 +32 жарко 1016.6 961.8
15 16.09 З 2 50 км ясно +23.8 +15.7 60 +27 +27 жарко 1015.6 960.5
18 16.09 СВ 2 4000 м 6/6 600 м
[Sc Ac und]
+20.7 +16.0 74 +25 +25 комфорт 1015.8 960.2 +26.5
21 16.09 С 2 4000 м 8/8 600 м
[Sc Ac und]
+20.1 +16.3 79 +23 +23 комфорт 1015.9 960.2
00 17.09 С 2 20 км ясно +19.0 +14.1 73 +21 +21 комфорт 1015.1 959.2
03 17.09 СВ 2 50 км ясно +18.3 +12.9 71 +19 +19 1014.8 958.7
06 17.09 ЮЗ 2 50 км ясно +23.1 +15.1 61 +27 +34 душно 1013.7 958.6 +18.0
09 17.09 ЮЗ 2 50 км ясно +26.7 +13.7 45 +29 +41 жарко 1010.7 956.4
12 17.09 В 2 50 км 1/1 1000 м
[Cu med, cong]
+29.7 +14.6 40 +32 +37 душно 1008.0 954.4
15 17.09 СВ 2 20 км 8/8 1000 м
[Sc]
+25.1 +15.1 54 +28 +28 жарко 1008.9 954.4
18 17.09 С 2 4000 м слаб. дождь {гроза} 10/10 600 м
[Cu med, cong]
+19.9 +16.4 80 +23 +23 комфорт 1013.9 958.2 +30.2 0.0
21 17.09 СВ 2 20 км 3/0
[Ac lent]
+18.7 +13.0 69 +20 +20 1015.3 959.2 0.0
00 18.09 СВ 2 20 км ясно +17.6 +11.5 67 +18 +18 1016.0 959.7
03 18.09 С 2 50 км ясно +17.3 +10.7 65 +18 +18 1017.2 960.7
06 18.09 ЮЗ 2 50 км ясно +21.5 +12.3 56 +24 +30 комфорт 1017.8 962.1 +17.0 1
09 18.09 З 2 50 км 1/1 1500 м
[Cu med, cong]
+25.4 +12.6 45 +27 +38 жарко 1017.4 962.5
12 18.09 З 2 50 км 1/1 1500 м
[Cu med, cong]
+25.3 +10.5 39 +26 +32 жарко 1015.8 961.5
15 18.09 СЗ 2 20 км ясно +25.5 +12.3 44 +27 +27 жарко 1016.3 961.3 +29.0
18 18.09 СВ 2 20 км ясно +20.7 +7.6 43 +23 +23 комфорт 1017.1 961.3 +29.0
21 18.09 С 2 20 км ясно +19.8 +6.5 42 +21 +21 комфорт 1017.3 961.3
00 19.09 СВ 2 20 км ясно +18.6 +6.8 46 +19 +19 1017.5 961.2
03 19.09 С 2 50 км ясно +18.2 +6.8 47 +19 +19 1017.2 960.9
06 19.09 З 2 50 км ясно +23.8 +7.1 34 +24 +30 комфорт 1016.6 961.4 +17.9
09 19.09 З 2 50 км ясно +28.5 +10.0 32 +29 +41 жарко 1015.8 961.4
12 19.09 З 2 50 км ясно +31.2 +7.4 23 +30 +36 жарко 1014.4 960.5
15 19.09 С 2 50 км ясно +25.9 +12.2 43 +27 +27 жарко 1015.8 961.0
18 19.09 СВ 2 20 км 3/0
[Ac und]
+23.6 +8.9 39 +24 +24 комфорт 1017.5 962.2 +32.0
21 19.09 С 2 20 км 1/0
[Ac und]
+20.1 +9.7 51 +22 +22 комфорт 1019.8 963.7
00 20.09 СВ 2 20 км 3/0
[Ac und]
+17.9 +10.9 64 +18 +18 1020.2 963.7
03 20.09 С 2 20 км 8/8 1000 м
[Sc Ac und]
+18.3 +14.5 79 +19 +19 1020.2 963.8
06 20.09 Ю 2 20 км 5/0
[Ac lent]
+20.0 +15.1 73 +23 +27 комфорт 1019.2 963.3 +17.6
09 20.09 Ю 2 20 км 6/6 1000 м
[Sc Ac lent]
+23.1 +15.1 61 +27 +32 душно 1016.2 961.0
12 20.09 Ю 2 20 км 6/6 1000 м
[Sc Ac lent]
+25.5 +15.2 53 +28 +31 жарко 1012.8 958.2
15 20.09 В 2 50 км ясно +23.4 +15.6 62 +28 +28 душно 1012.3 957.4
18 20.09 С 2 20 км ясно +19.9 +14.4 71 +23 +23 комфорт 1011.9 956.3 +26.0
21 20.09 С 2 20 км 1/0
[Ac lent]
+19.0 +14.3 74 +21 +21 комфорт 1011.3 955.5
00 21.09 С 2 20 км ясно +17.6 +12.4 72 +18 +18 1010.6 954.6
03 21.09 СВ 2 50 км 3/3 1500 м
[Cu med, cong Ac lent]
+17.7 +12.5 72 +18 +18 1009.9 953.9
06 21.09 ЮЗ 2 50 км ясно +22.8 +14.5 59 +26 +33 жарко 1008.8 953.9 +17.3
09 21.09 З 2 50 км 1/1 1500 м
[Cu med, cong]
+26.1 +13.3 45 +28 +39 жарко 1006.7 952.5
12 21.09 ЮЗ 7 50 км 4/4 1000 м
[Sc Ac und]
+26.0 +8.8 34 +26 +27 жарко 1005.9 951.7
15 21.09 Ю 2 20 км 9/9 1000 м
[Sc]
+20.1 +7.7 45 +22 +22 комфорт 1009.1 953.5
18 21.09 З 2 2000 м слаб. морось 10/10 600 м
[Cu med, cong]
+16.4 +7.0 54 +17 +17 1013.3 956.8 +26.8 0.0
21 21.09 ЮЗ 2 2000 м слаб. морось 10/10 600 м
[Cu med, cong]
+13.5 +10.0 79 +13 +13 1016.6 959.5
00 22.09 Ю 2 2000 м слаб. морось 10/10 600 м
[Cu med, cong]
+12.7 +9.3 80 +12 +12 1018.2 960.8
03 22.09 СВ 2 50 км 1/0
[Ac lent]
+10.8 +8.1 83 +9 +9 1021.4 963.5

 

Местоположение метеостанции Закатала (Азербайджан): широта 41.67 долгота 46.65 высота над уровнем моря 490 м.

В архиве по умолчанию представлена погода в Закатале за последнюю неделю. Архивные данные за месяц целиком и за предыдущие месяцы, начиная с января 2011 года, Вы можете получить, выбрав интересующий диапазон дат из раскрывающегося списка и нажав кнопку "Ввод!".


*Определитесь, кто Вы:
робот инопланетянин человек

Внимание! Время в таблицах - всемирное. Для получения местного времени необходимо прибавить поправку, которая равна 4 ч.

Смотрите также архив погоды в соседних городах и на ближайших метеорологических станциях:

Погода в Тлярате (Дагестан, Россия) (56 км)
Погода в Кумухе (Дагестан, Россия) (63 км)
Погода в Шеках (Азербайджан) (66 км)
Погода в Сулаке (высокогорная) (Дагестан, Россия) (85 км)
Погода в Гунибе (Дагестан, Россия) (85 км)
Погода в Куппе (Дагестан, Россия) (92 км)
Погода в Ахты (Дагестан, Россия) (94 км)
Погода в Хунзахе (Дагестан, Россия) (100 км)
Погода в Гяндже (Азербайджан) (107 км)
Погода в Телави (Грузия) (109 км)

Пояснения к столбцам:

Ветер - указаны скорость ветра в м/с - средняя за 10 мин, порывы в срок и между сроками (в фигурных скобках) и направление, откуда дует ветер: С - северный, СВ - северо-восточный, В - восточный, ЮВ - юго-восточный, Ю - южный, ЮЗ - юго-западный, З - западный, СЗ - северо-западный.
Видимость - горизонтальная дальность видимости в метрах или километрах. При видимости от 1 до 10 км при отсутствии осадков обычно наблюдается дымка, при ухудшении видимости до 1 км и менее - туман. В сухую погоду видимость может ухудшаться дымом, пылью или мглою.
Явления - указаны атмосферные явления, наблюдавшиеся в срок или в последний час перед сроком; фигурными скобками обозначены явления, наблюдавшиеся между сроками (за 1-3 часа до срока); квадратными скобками обозначены град или гололедные отложения с указанием их диаметра в мм.
Облачность - указаны через наклонную черту общая и нижняя облачность в баллах и высота нижней границы облаков в метрах; квадратными скобками обозначены формы облаков: Ci - перистые, Cs - перисто-слоистые, Cc - перисто-кучевые, Ac - высококучевые, As - высокослоистые, Sc - слоисто-кучевые, Ns - слоисто-дождевые, Cu - кучевые, Cb - кучево-дождевые. Подробнее классификацию облаков см. в Атласе облаков (PDF).
T - Температура воздуха - температура, измеренная на высоте 2 м над землей.
Td - Температура точки росы - температура, при понижении до которой содержащийся в воздухе водяной пар достигнет насыщения.
f - Относительная влажность воздуха - влажноcть воздуха, измеренная на высоте 2 м над землей.
Te - Эффективная температура - температура, которую ощущает одетый по сезону человек в тени. Характеристика душности погоды. При расчете учитывается влияние влажности воздуха и скорости ветра на теплоощущения человека.
Tes - Эффективная температура на солнце - температура, которую ощущает человек, с поправкой на солнечный нагрев. Характеристика знойности погоды. Зависит от высоты солнца над горизонтом, облачности и скорости ветра. Ночью, в пасмурную погоду, а также при ветре 12 м/с и более поправка равна нулю.
P - Атмосферное давление - приведенное к уровню моря атмосферное давление.
Po - Атмосферное давление - измеренное на уровне метеостанции атмосферное давление.
Tmin - Минимальная температура - минимум температуры воздуха на высоте 2 м над землей.
Tmax - Максимальная температура - максимум температуры воздуха на высоте 2 м над землей.
R - Количество осадков - Количество выпавших осадков за период времени, мм. При наведении курсора мыши на число - период времени, за который выпало указанное количество осадков.
R24 - Количество осадков - Количество выпавших осадков за 24 часа, мм.
S - Снежный покров - Высота снежного покрова, см. При наведении курсора мыши на число - состояние снежного покрова и степень покрытия местности в баллах.